Weather in Ocheretuvate

Ukraine / Zaporizhia Region     47°20′15″N   35°56′30″E
temp.,
°C
wind,
m/s
gust,
m/s
humid.,
%
clouds,
%
prec.,
mm/h
press.,
hPa
HPBL,
m
16 september, thu
thu1600:00+14nne463514 0.0 101796
03:00+12nne34455 0.0 101767
06:00+11nne354992 0.0 101771
09:00+17nne45345 0.0 1017372
12:00+21n552571 0.0 10171408
15:00+22n452592 0.0 10161619
18:00+20n33263 0.0 101647
21:00+15nne34340 0.0 101841
17 september, fri
fri1700:00+14ne45400 0.0 101866
03:00+13ene34434 0.0 101844
06:00+12ene3345100 0.0 101820
09:00+18ene223328 0.0 1017315
12:00+23se01245 0.0 10161567
15:00+24wsw22225 0.0 10151912
18:00+22ssw1229100 0.0 101440
21:00+16s36555 0.0 1015115
18 september, sat
sat1800:00+15s33565 0.0 101541
03:00+14sse33565 0.0 101436
06:00+13se34595 0.0 101457
09:00+19sse574588 0.0 1013482
12:00+24s663193 0.0 10131503
15:00+24s663388 0.0 10121530
18:00+21sse4649100 0.0 1012442
21:00+18se3668100 0.0 1012209
19 september, sun
sun1900:00+18sse4968100 0.1 1011345
03:00+17se248096 1.0 1011129
06:00+17ssw367696 0.0 1011186
09:00+19ssw576797 0.1 1011612
12:00+21sw5870100 0.7 10111006
15:00+22sw685792 2.0 10101433
18:00+21s585482 0.8 1009335
21:00+16s357619 2.1 101092
20 september, mon
mon2000:00+16ssw488321 0.4 1009166
03:00+15sw37774 0.4 1009130
06:00+13wsw378316 0.0 1010137
09:00+17w6105823 0.0 1011603
12:00+21w610399 0.0 10111553
15:00+23wsw7113549 0.0 10112350
18:00+20nw564289 0.0 1011348
21:00+16nw4756100 0.2 1012537